Regional Weather Roundup
Issued by NWS Northern Indiana

Home | Current Version | Previous Version | Text Only | Print | Product List | Glossary On
Versions: 1 2 3 4 5 6 7 8 9 10 11 12 13 14 15 16 17 18 19 20 21 22 23 24 25 26 27 28 29 30 31 32 33 34 35 36 37 38 39 40 41 42 43 44 45 46 47 48 49 50
000
ASUS43 KIWX 050310
RWRIWX

KIWX WEATHER ROUNDUP
NATIONAL WEATHER SERVICE NORTHERN INDIANA
1100 PM EDT WED MAY 04 2016

NOTE: "FAIR" INDICATES FEW OR NO CLOUDS BELOW 12,000 FEET WITH NO
SIGNIFICANT WEATHER AND/OR OBSTRUCTIONS TO VISIBILITY.

* THESE STATIONS ARE NOT UNDER NWS QUALITY CONTROL. THEY ALSO MAY NOT
  REPORT WEATHER SUCH AS PRECIPITATION OR FOG.

INZ001>027-050400-
NORTHERN INDIANA

CITY           SKY/WX    TMP DP  RH WIND       PRES   REMARKS
GARY*          MOCLDY    45  41  87 N17G35    29.87R
VALPARAISO     CLOUDY    41  36  82 N13G26    29.82S
MICHIGAN CITY* DRIZZLE   39  37  93 N20G29    29.82S
LAPORTE*       LGT RAIN  42  42 100 N20G25    29.80S
KNOX*          CLOUDY    41  34  75 NW16G24   29.79S
SOUTH BEND     CLOUDY    40  38  93 N26G33    29.76S
GOSHEN         LGT RAIN  40  38  93 NW13      29.72S FOG
MONTICELLO*    DRIZZLE   42  36  77 NW13G26   29.81S
LOGANSPORT*    CLOUDY    41  36  81 NW14G22   29.79S
ROCHESTER*     RAIN      43  41  93 NW17G25   29.76S
WARSAW*        DRIZZLE   37  37 100 NW13      29.73F
ANGOLA*          N/A     39  36  87 W3        29.70R
FORT WAYNE     CLOUDY    39  37  92 NW8       29.74R
HUNTINGTON*    CLOUDY    38  37  93 NW6       29.74S FOG
MARION*        CLOUDY    39  37  92 NW10G18   29.76S FOG

$$
INZ028>050-050400-
CENTRAL INDIANA

CITY           SKY/WX    TMP DP  RH WIND       PRES   REMARKS
LAFAYETTE      CLOUDY    44  37  76 N12       29.83R
KOKOMO*        CLOUDY    41  36  81 NW20G25   29.76F
MUNCIE*        LGT RAIN  42  37  82 NW17G24   29.75S
INDIANAPOLIS   LGT RAIN  45  37  73 NW13      29.79F

$$
MIZ043>046-050>051-056>058-064>065-071>073-077>080-050400-
SOUTHWEST LOWER MICHIGAN

CITY           SKY/WX    TMP DP  RH WIND       PRES   REMARKS
BATTLE CREEK   CLOUDY    45  44  97 NE9       29.71R
BENTON HARBOR  CLOUDY    41  38  89 NW10G23   29.79R
COLDWATER*     LGT RAIN  42  42  99 SE3       29.70R
HILLSDALE*     CLOUDY    40  37  91 CALM      29.71R
HOLLAND        CLOUDY   N/A N/A N/A N8G21     29.79R
GRAND RAPIDS   LGT RAIN  45  42  89 N16       29.76R
KALAMAZOO      LGT RAIN  44  40  85 N14       29.72R FOG
STURGIS*       DRIZZLE   41  40  97 N8        29.69R
THREE RIVERS*  CLOUDY    43  40  89 N9        29.72R FOG

$$
OHZ001>008-015>018-024>025-050400-
NORTHWEST OHIO

CITY           SKY/WX    TMP DP  RH WIND       PRES   REMARKS
WAUSEON*         N/A     43 N/A N/A NW8       29.72R
DEFIANCE       CLOUDY    43  36  76 W5        29.73R
FINDLAY        CLOUDY    45  37  73 W7        29.72R
TOLEDO EXPRESS CLOUDY    45  40  82 NW5       29.71R
TOLEDO METCALF CLOUDY    47  41  80 W7        29.72R
LIMA           CLOUDY    42  37  82 NW8       29.72R

$$
AND FOR LAKE MICHIGAN COASTAL AND OPEN LAKE BUOY OBSERVATIONS

STATION/POSITION TEMP    WIND        PRES    VSBY  WAVE
                 AIR SEA DIR/SP/G                  HT/PER
                 (F)     (DEG/KT/KT) (MB)    (MI)  (FT/S)
CALUMET HARBOR    43                 1010.7R
MICHIGAN CITY     42     340/ 35/ 38   N/A
BURNS HARBOR      44     360/ 24/ 29 1010.8S
SAINT JOSEPH      42     340/ 25/ 33 1009.5S
SOUTH LAKE BUOY   41 40   10/ 27/ 33 1010.1R         9/ 8
4 MI NW BRIDGMAN  42 47                N/A          10/ 8

$$
&&




USA.gov is the U.S. government's official web portal to all federal, state and local government web resources and services.